星链-32258 (STARLINK-32258)

导读 | 豆包AI

STARLINK-32258是美国SpaceX星链星座的卫星,于2024年8月31日发射,星链计划旨在构建全球卫星互联网星座,为全球范围内偏远地区、网络不发达区域以及海上、航空等场景提供宽带互联网接入服务。这颗卫星加入后,进一步扩大了星链在轨卫星规模,提升星座的覆盖能力与服务容量,增强星链网络的稳定性和服务质量。

基本信息
目录编号:
60939
目录名称:
STARLINK-32258
国际标识:
2024-155R
轨道中心:
EARTH
卫星名称:
星链-32258
卫星全名:
星链-32258 (STARLINK-32258)
卫星状态:
在轨 (已飞行561 天)
发射日期:
2024-08-31 UTC
国别 :
美国 (US)
星等 :
--
轨道信息
数据来源 国际轨道数据 AOE轨道数据
星历时间 2026-03-15T03:17:40+0800
16小时前
查看轨道信息
2026-03-11T08:00:00+0800
4天前
查看轨道信息
半长轴 6853.384km 6853.323km
偏心率 0.0001038 0.0001653
轨道倾角 53.160° 53.161°
近地点辐角 103.090° 63.582°
升交点赤经 105.927° 123.602°
平近点角 257.022° 210.135°
近地点 474.535km 474.053km
远地点 475.959km 476.319km
周期 94.106分钟 94.105分钟
每日圈数 15.301896 15.302099
详细信息
固有亮度:
5
最大亮度:
2.5
卫星平台:
Starlink V1.0
覆盖范围:
全球
运营商:
太空探索技术公司
运营商所在国:
美国
制造商(研发单位):
太空探索技术公司
制造商所在国:
美国
使用方式:
暂无
卫星简介
Starlink 计划是 SpaceX 推出的全球卫星互联网项目,通过发射低轨道卫星,为全球尤其是偏远地区提供高速、低延迟的互联网服务。自 2019 年起,Starlink 已部署数千颗卫星,旨在缩小全球数字鸿沟,推动互联网普及。该项目还为军事、航空等行业提供通信支持,带来广泛经济效益。
2D轨道图
3D轨道图
轨道高度分析图
轨道倾角分析图
轨道综合分析图
查看轨道综合分析图